User: anonymous   Login
Location: Unspecified
(0.0000°N, 0.0000°E)
Time: 09:24:22
(UTC+00:00)
Language:

SO-50 - Orbit

View from above orbital plane
View from above orbital plane
View from above satellite
View from above satellite

Ground track
Ground track

The orbit data is extracted from the following two-line orbital elements,

1 27607U 02058C   19287.94829090  .00000004  00000-0  21352-4 0  9996
2 27607  64.5561  48.0376 0075061 233.5265 125.8906 14.75578923904481
Epoch (UTC): 14 October 2019 22:45:32
Eccentricity: 0.0075061
inclination: 64.5561°
perigee height: 590 km
apogee height: 696 km
right ascension of ascending node: 48.0376°
argument of perigee: 233.5265°
revolutions per day: 14.75578923
mean anomaly at epoch: 125.8906°
orbit number at epoch: 90448

The dashed part of the orbit path shows where the satellite is in the earth's shadow,  

DLR